GFSCGP_925_spd_264.txt.gz
Wind_Speed
5 9 9 4 2 2 3 6 2 3 4 6 3 4 3 11 12 13 15 16 16 16 19 21 21 19 18 18 19 19 19 18 17 16 14 13 13 12 12 12 12 11 11 11
8 11 5 2 1 4 6 6 6 5 1 6 7 7 3 10 13 14 15 16 17 17 17 21 22 22 22 22 21 21 20 19 20 17 16 14 13 12 12 13 13 14 13 13
10 8 2 5 4 8 8 11 6 8 9 11 10 12 5 5 9 12 14 15 17 17 18 19 23 25 25 25 25 24 23 22 20 18 16 15 11 12 13 14 15 16 15 15
2 2 3 5 6 7 11 5 9 10 9 8 2 6 5 6 9 13 15 16 17 18 17 18 23 26 27 28 26 26 26 24 22 21 18 18 18 17 15 15 16 17 17 17
5 3 4 5 3 4 4 7 8 10 12 14 14 8 7 3 7 10 12 14 15 16 18 19 23 27 28 28 28 28 27 27 25 24 23 21 19 17 16 16 15 17 17 18
9 2 5 4 2 3 7 9 10 11 11 14 16 16 11 8 4 5 10 3 8 13 17 19 24 26 30 30 30 29 29 30 28 27 26 24 22 18 17 18 18 18 19 20
6 2 3 5 7 6 8 11 8 8 9 11 6 10 9 1 12 9 9 9 11 10 12 15 20 25 29 31 32 31 31 31 31 30 28 28 26 23 18 17 19 19 20 21
6 7 2 4 5 7 7 9 7 7 9 3 5 6 6 7 12 8 10 10 11 11 13 10 14 25 30 33 34 33 32 32 32 32 31 29 28 26 24 21 20 20 20 20
3 3 2 1 5 5 5 7 8 9 11 8 9 7 4 9 8 8 9 10 13 14 14 12 12 16 28 34 37 37 34 34 35 34 32 31 30 29 27 25 24 21 21 19
3 5 3 1 4 6 8 6 6 6 5 8 5 4 9 9 5 8 11 13 14 15 17 17 15 18 22 32 36 37 38 36 35 36 35 33 32 31 30 27 26 25 23 22
3 4 8 4 6 5 5 9 8 8 6 8 8 3 9 4 6 12 14 17 17 18 19 19 19 26 24 26 33 38 39 38 36 37 36 34 33 31 31 32 29 27 25 22
3 4 7 6 3 6 11 8 10 9 8 8 9 12 5 4 8 15 19 19 18 18 19 20 21 28 26 15 26 32 37 37 36 34 34 37 34 32 31 32 32 29 28 27
1 3 7 8 7 6 10 8 7 8 8 13 12 6 5 3 15 15 19 21 20 19 20 19 19 22 25 16 20 27 31 35 35 33 35 35 35 34 34 33 32 32 30 30
1 10 11 12 12 6 11 11 11 12 10 13 18 19 19 17 17 19 18 17 19 19 20 18 18 19 24 23 18 24 28 31 33 33 35 35 37 37 36 35 33 33 32 31
5 10 11 13 14 15 15 16 17 18 18 20 21 24 21 19 21 18 16 16 19 18 20 19 19 18 24 24 17 22 25 27 30 30 32 33 34 34 34 32 34 33 32 33
3 8 8 13 15 15 19 19 19 21 22 24 23 26 21 18 15 14 13 17 19 20 19 20 19 20 21 23 19 21 23 25 26 28 31 30 29 29 30 31 32 31 33 34
8 7 6 12 2 9 12 18 19 20 19 20 20 19 18 18 19 19 17 16 20 19 19 20 20 20 20 20 22 20 22 19 19 26 28 28 28 28 29 29 29 30 31 31
4 6 6 9 8 15 4 6 10 12 14 17 21 17 17 17 19 21 15 20 14 15 16 18 22 26 23 20 23 22 21 22 21 26 27 28 26 25 25 24 27 29 30 30
4 6 6 6 10 14 17 7 8 12 16 18 12 14 14 14 18 16 10 7 14 18 20 21 25 26 26 23 24 25 21 18 22 30 25 25 26 25 28 27 27 30 30 29
5 5 7 10 14 12 7 6 8 13 18 5 12 16 17 17 14 12 19 20 20 24 27 26 27 27 22 24 22 25 23 17 22 24 22 23 25 29 24 23 23 29 31 29
7 6 9 9 12 9 7 7 6 11 9 16 18 21 22 19 15 20 20 20 24 23 26 28 29 26 26 18 19 22 25 21 10 5 13 17 17 18 18 21 24 25 23 21
5 4 7 4 9 11 4 12 13 17 23 24 25 25 26 23 21 20 20 19 15 20 22 23 24 18 17 11 12 9 6 5 5 8 11 12 12 14 15 26 16 9 15 16
5 4 7 7 9 17 16 14 14 15 17 18 19 20 21 22 21 21 18 15 13 14 16 16 14 11 11 8 8 5 6 9 14 15 14 12 8 10 15 23 19 13 4 8
6 6 7 10 5 13 16 16 13 16 20 18 21 20 19 21 21 19 14 11 6 8 11 13 11 11 10 13 3 7 6 10 12 13 13 10 9 9 7 11 11 10 10 7
8 1 9 12 13 12 12 14 15 15 17 18 15 14 16 16 15 11 2 3 5 10 17 12 13 14 14 17 11 7 7 10 12 12 8 7 7 8 7 4 1 4 5 8
5 8 7 10 13 11 13 14 10 11 12 12 10 12 11 11 7 9 9 12 13 12 16 19 18 17 19 11 19 25 15 16 17 18 15 15 15 11 5 6 8 5 3 3

GFSCGP_925_spd_267.txt.gz
Wind_Speed
9 10 12 5 4 5 7 7 2 6 3 7 6 4 11 13 14 13 14 14 14 14 17 20 20 18 18 20 20 20 19 18 18 17 16 15 15 14 14 13 11 10 12 13
10 12 4 7 5 9 9 10 8 6 8 5 11 10 10 17 14 14 14 15 15 16 16 19 21 21 20 21 21 21 20 20 20 18 16 14 16 15 14 14 14 13 14 13
15 11 9 2 11 10 12 11 12 6 8 13 14 15 10 10 16 12 14 15 15 16 16 17 21 22 22 23 23 23 22 21 21 19 17 14 12 11 11 15 15 16 16 15
10 10 3 5 10 7 13 11 4 10 12 10 3 3 9 14 14 16 13 15 15 15 15 16 19 22 23 24 24 23 23 23 22 21 19 18 17 17 20 18 17 17 18 17
5 3 6 9 4 3 11 8 8 12 13 14 14 8 7 6 10 16 16 17 14 16 16 16 21 24 25 25 26 26 26 25 24 24 21 21 20 18 17 17 16 17 19 19
5 2 4 8 4 7 11 13 14 14 13 12 15 13 12 10 9 16 13 6 12 11 13 15 19 23 25 26 27 28 29 28 28 27 26 21 22 21 19 19 18 18 20 20
6 8 5 5 8 9 11 14 9 9 10 11 13 13 11 16 18 14 12 13 12 9 4 13 15 18 24 26 28 29 31 31 30 30 28 28 24 23 18 18 20 20 21 22
8 8 9 5 5 10 8 10 8 7 6 6 9 5 1 19 15 13 12 10 9 11 12 11 12 19 23 25 29 31 30 33 32 32 31 30 29 26 25 21 20 22 22 22
3 4 6 1 4 6 2 7 9 9 14 9 10 7 7 14 13 7 10 7 8 9 10 12 12 12 17 22 30 32 32 34 35 35 33 32 32 31 28 26 28 21 23 20
5 9 7 7 5 11 10 10 8 8 8 12 9 9 9 19 15 7 5 7 9 9 9 11 12 13 15 23 22 34 36 34 35 35 35 35 33 33 30 27 25 27 22 25
8 7 6 3 11 10 7 10 10 14 11 12 10 2 13 13 10 4 5 12 12 12 12 12 14 18 20 24 33 32 35 36 35 35 34 34 35 34 32 30 28 25 27 22
5 8 10 10 9 4 11 14 15 11 11 11 12 13 14 11 4 7 9 11 14 13 13 14 15 19 22 28 30 16 28 34 34 34 33 34 33 33 33 33 31 30 28 28
8 6 8 14 12 9 10 12 14 14 14 17 13 8 6 10 7 5 9 15 15 14 14 14 15 17 21 25 29 31 18 27 32 33 33 35 36 35 35 33 33 33 32 30
4 10 11 13 17 13 10 10 11 12 12 14 16 18 16 7 14 15 16 13 15 15 15 14 14 16 20 20 25 27 27 21 25 31 33 32 35 37 36 33 32 33 33 32
6 11 12 14 15 17 17 18 17 17 18 18 21 22 21 22 21 19 13 11 12 14 16 17 14 15 22 19 22 25 28 20 21 24 31 32 32 34 33 33 34 34 34 33
9 9 9 14 15 17 18 17 19 21 21 22 24 25 21 19 15 15 14 16 18 15 16 15 16 21 23 23 20 24 26 27 20 19 21 27 27 29 30 31 31 33 32 34
9 9 10 14 13 8 11 16 15 15 16 19 21 18 16 18 18 18 19 20 21 16 16 14 16 18 24 25 23 20 25 29 26 24 17 18 25 26 30 31 31 29 32 32
7 7 9 11 11 15 7 6 9 13 15 16 19 17 15 13 16 17 18 23 17 16 14 17 20 23 25 27 27 23 22 26 26 25 22 16 15 22 25 29 30 31 31 32
7 8 8 10 11 13 13 5 7 11 17 19 21 18 16 15 18 19 21 10 12 16 20 24 23 26 27 29 27 26 21 22 26 23 27 32 22 16 24 28 26 27 29 29
7 4 8 10 11 13 11 14 9 8 17 13 15 17 19 19 16 15 17 22 21 26 25 27 25 28 28 29 28 26 24 22 24 26 24 25 29 24 36 27 22 24 27 26
7 9 11 10 11 9 10 8 7 11 12 20 20 21 22 20 18 26 25 23 25 27 28 25 28 26 27 32 25 27 25 22 24 27 26 25 28 29 30 26 27 26 26 27
8 8 8 9 12 8 10 14 11 14 18 18 21 23 26 24 26 24 22 23 22 22 23 26 24 26 28 28 23 25 25 19 16 16 17 18 22 23 23 27 24 24 25 20
7 4 7 7 12 16 10 13 15 15 16 17 23 26 24 25 23 23 20 20 19 20 20 18 21 25 26 20 18 20 26 13 11 14 5 9 12 9 10 11 14 12 8 8
7 9 6 9 13 14 13 10 9 10 17 19 20 22 21 20 22 23 20 17 12 8 11 14 16 19 21 21 17 16 17 9 3 9 12 10 11 16 16 17 13 11 6 3
7 4 6 13 10 11 12 12 11 12 12 12 15 17 19 20 20 14 11 12 16 14 15 14 16 22 23 19 13 16 13 10 10 15 11 13 13 13 13 11 9 10 8 1
5 5 8 10 14 12 13 11 7 7 6 10 11 14 18 21 17 17 11 17 17 15 16 21 24 27 29 21 16 20 15 8 13 12 12 8 11 9 13 13 13 13 10 6

GFSCGP_925_spd_270.txt.gz
Wind_Speed
14 10 11 9 9 8 10 6 4 12 7 4 4 1 15 16 14 15 16 16 15 15 16 22 21 21 22 21 23 20 22 20 25 20 17 16 15 16 14 15 16 19 16 15
11 11 12 8 8 6 10 10 9 13 10 7 3 11 11 20 17 16 15 17 16 15 17 20 21 22 22 24 25 24 22 20 23 21 22 18 21 22 20 17 18 14 15 15
13 4 7 4 7 10 10 11 13 5 4 12 11 10 15 19 18 17 17 17 16 17 17 17 20 22 21 25 25 26 24 25 24 22 21 20 18 17 9 19 22 19 15 16
7 9 5 1 7 8 12 11 10 8 9 11 11 6 11 15 18 13 15 18 20 18 17 18 21 21 22 26 27 26 25 25 27 27 23 21 17 15 15 14 21 23 22 20
3 4 3 5 8 6 6 12 9 11 12 13 14 8 7 17 12 18 20 7 8 19 20 21 21 26 23 24 29 28 30 25 24 28 24 23 21 21 21 23 19 23 24 23
7 8 3 9 8 3 9 12 14 15 13 11 14 11 12 11 10 12 14 12 4 5 16 18 28 30 27 25 26 30 33 31 27 26 30 22 26 24 20 25 22 24 24 27
5 7 6 2 9 11 9 13 10 9 9 11 16 11 5 14 19 21 17 16 17 15 11 5 11 20 27 27 27 28 35 34 33 27 28 27 22 29 25 16 23 23 22 24
8 10 7 7 5 8 8 8 6 7 8 10 9 4 10 16 17 18 15 15 14 14 14 15 9 4 1 22 29 28 35 36 35 36 30 28 28 23 24 19 19 22 23 26
6 5 7 1 3 6 6 3 14 9 13 9 7 20 17 18 16 14 14 13 12 10 12 13 15 20 12 8 17 24 29 38 39 38 36 33 31 29 25 25 24 20 25 20
6 6 9 12 2 9 8 11 7 5 4 6 11 8 4 19 16 13 13 14 11 11 12 11 12 16 17 19 23 30 24 34 41 39 37 35 33 32 31 27 32 25 21 27
11 5 0 2 9 9 7 7 6 10 8 10 10 7 17 17 14 11 13 13 11 10 10 11 13 18 18 21 24 28 29 31 39 39 36 34 33 32 32 32 27 29 29 23
10 6 10 11 5 4 7 12 12 9 8 9 10 11 17 14 12 7 10 8 8 9 10 10 12 17 20 21 23 26 31 36 33 41 38 37 35 34 33 34 33 27 29 28
11 4 7 12 13 10 3 5 9 10 13 15 11 5 14 10 4 13 9 8 7 7 9 10 12 12 16 22 23 27 29 29 34 32 39 36 36 35 35 35 34 34 30 31
5 8 8 10 17 14 10 12 10 10 9 12 13 16 16 10 16 16 14 10 7 6 7 8 9 12 19 24 27 27 29 30 29 33 29 36 35 37 37 36 33 33 35 32
4 8 10 13 16 16 16 16 16 16 16 16 17 20 20 20 17 16 17 17 16 12 11 9 9 8 13 18 25 27 29 29 28 27 26 19 36 35 35 34 36 35 35 34
6 10 9 12 15 16 16 15 14 17 17 18 18 20 17 15 15 16 15 16 16 16 18 17 9 12 13 15 20 25 30 31 28 27 25 24 23 34 35 34 34 37 36 36
9 7 9 14 14 15 13 10 10 11 8 11 11 17 19 19 17 14 15 16 16 15 13 14 11 13 13 16 20 23 25 32 29 27 26 25 23 21 34 35 33 33 35 34
7 7 7 10 12 13 11 7 7 10 11 15 18 19 18 18 18 17 14 15 16 11 13 13 15 19 17 17 20 23 25 27 30 28 28 25 22 15 22 32 31 32 31 31
8 5 8 8 11 13 11 16 9 8 9 12 12 14 17 19 20 17 17 15 17 16 15 18 21 22 25 19 19 23 30 26 26 30 28 27 24 19 16 24 30 32 28 29
5 3 4 9 10 12 8 11 8 6 9 11 12 14 18 18 14 13 21 22 22 26 25 22 21 24 21 21 20 23 30 26 25 30 29 26 28 23 21 23 24 20 23 25
6 6 9 10 11 5 10 11 12 8 9 16 16 17 19 16 14 22 23 23 28 29 28 31 29 17 17 19 22 23 27 27 28 30 30 28 29 26 27 25 25 24 26 20
4 6 9 11 12 4 11 10 9 9 13 16 18 19 20 20 21 21 20 19 22 23 24 21 20 19 17 19 24 26 26 28 30 36 33 32 30 25 25 26 25 24 22 23
4 6 5 5 8 10 9 8 5 7 10 13 14 14 17 17 20 20 20 20 22 24 18 16 16 17 19 21 22 28 30 27 31 34 31 29 18 15 16 20 22 20 16 15
5 6 7 7 7 14 16 13 9 11 10 11 12 13 15 14 15 17 17 15 16 19 20 18 17 17 19 20 23 32 31 29 29 30 25 13 7 5 5 5 8 13 11 12
8 4 8 9 3 4 1 20 11 8 10 13 14 14 12 13 13 12 11 15 17 18 19 18 16 16 18 23 30 34 34 26 24 24 17 9 8 16 20 20 17 17 14 11
7 7 7 9 6 8 10 8 11 9 11 11 10 10 13 11 11 15 12 17 17 19 19 19 19 17 23 29 33 35 29 11 3 12 10 12 13 12 19 25 26 17 14 11

GFSCGP_925_spd_273.txt.gz
Wind_Speed
8 4 8 9 7 2 4 6 10 7 8 9 11 12 19 17 16 18 16 15 13 14 13 26 28 27 30 34 34 27 33 31 27 25 22 17 14 16 16 13 21 19 15 19
6 7 10 7 7 7 8 8 6 5 8 6 6 5 19 20 16 20 19 17 15 12 15 20 26 28 29 35 32 30 26 34 32 29 26 20 18 16 20 16 19 24 19 14
7 5 6 7 7 7 7 5 7 4 6 7 4 6 10 16 11 13 17 18 16 15 16 15 19 26 29 33 34 30 28 32 30 28 27 23 20 21 22 18 25 25 21 19
8 5 6 5 4 4 5 8 10 9 5 3 3 5 6 16 16 16 14 14 15 14 17 18 20 24 27 32 36 34 31 29 30 27 26 28 25 22 25 19 30 27 22 22
3 9 3 0 5 7 2 9 7 6 7 7 13 2 7 21 7 6 9 15 7 12 18 20 3 23 26 33 35 37 34 31 32 29 27 28 26 24 24 19 25 30 26 23
2 4 5 3 6 4 7 5 8 5 2 3 12 6 7 14 9 6 12 9 10 8 13 12 23 13 7 28 32 37 39 37 34 31 33 25 27 25 24 25 25 27 32 29
5 6 6 3 3 5 5 3 3 3 0 6 7 2 2 16 19 17 14 15 11 14 12 12 13 8 9 14 22 31 38 36 39 37 33 36 28 28 26 23 29 23 32 34
3 4 8 3 5 3 5 2 4 3 3 6 8 6 1 18 17 18 17 15 13 16 19 13 8 19 20 12 16 11 23 33 38 40 39 39 37 29 31 33 26 21 32 34
6 4 6 10 5 4 7 4 6 1 6 4 2 6 7 9 14 17 17 15 12 11 11 13 19 21 25 26 14 5 12 33 32 41 39 40 40 38 34 30 29 29 27 34
5 3 7 6 1 4 3 3 5 5 4 4 4 4 7 7 12 15 14 12 10 10 10 9 14 21 17 16 17 19 16 12 17 25 30 33 43 43 43 36 29 29 29 25
5 3 5 3 5 4 1 3 3 2 4 2 3 4 8 10 13 13 11 10 10 9 9 8 12 20 20 21 21 19 19 19 24 24 43 40 37 42 43 42 41 33 35 27
7 2 3 5 4 7 6 3 3 4 7 2 3 2 7 11 11 10 9 8 7 8 8 8 15 19 20 22 23 21 22 26 31 31 20 37 38 37 39 40 41 42 37 36
5 4 4 7 4 10 4 4 2 2 1 3 4 4 9 10 17 17 18 11 9 9 9 8 11 12 15 19 21 24 22 26 27 33 29 22 35 36 37 39 41 42 40 34
4 2 1 3 2 4 6 9 8 4 2 3 4 1 17 14 16 15 13 10 10 9 9 9 7 9 13 14 17 20 23 23 25 29 31 27 22 38 38 39 39 40 42 40
2 1 5 8 8 7 7 8 9 6 6 2 7 8 8 9 9 8 8 11 13 12 12 8 7 7 10 11 16 19 21 25 24 26 26 27 26 20 34 40 41 40 40 42
3 2 3 5 8 9 7 7 8 8 6 6 7 8 8 9 10 9 9 8 6 8 7 8 6 12 16 12 14 16 21 26 29 26 23 26 28 26 26 27 42 43 41 42
3 3 5 4 8 9 6 5 6 6 13 7 8 4 10 13 13 10 7 10 13 15 11 8 8 12 16 20 17 17 19 22 30 31 29 25 28 30 30 31 33 44 41 42
4 1 2 4 5 3 4 14 12 7 14 13 11 10 8 8 8 8 8 12 13 14 13 10 15 19 17 21 22 14 15 21 29 31 31 30 28 30 31 32 34 34 40 43
2 2 2 1 3 7 5 10 10 5 8 15 12 14 13 13 10 7 16 19 18 16 19 19 24 27 29 23 24 12 14 16 22 28 29 30 28 30 30 31 33 35 31 37
4 5 4 3 2 2 4 8 7 5 2 7 8 10 12 11 7 6 16 15 19 25 25 27 27 26 21 23 14 13 15 17 19 24 29 33 35 34 32 30 32 32 32 31
3 1 5 5 5 3 4 7 4 1 1 8 9 8 8 5 4 10 14 17 24 24 26 29 27 22 18 14 18 20 20 19 23 26 30 34 36 34 33 34 32 30 29 26
4 4 1 3 3 0 6 4 2 4 7 7 7 9 7 7 9 12 13 13 20 22 26 26 21 20 21 22 24 23 23 25 31 31 30 35 37 35 33 32 32 29 24 21
1 5 4 4 2 2 9 8 7 9 8 8 8 8 6 9 12 13 15 14 20 21 22 23 19 18 21 22 23 24 28 33 31 29 32 36 36 35 34 28 28 24 24 23
2 4 3 2 3 4 6 5 9 10 10 10 9 7 9 8 9 12 11 13 17 19 19 22 22 17 19 25 26 25 30 30 29 31 35 33 30 32 22 19 18 21 20 18
2 5 2 2 5 8 14 5 9 12 11 9 10 10 5 4 3 3 5 9 13 16 19 22 23 21 20 24 27 28 33 34 32 28 30 30 29 19 10 9 4 6 9 16
2 2 2 3 6 6 7 7 12 12 10 7 9 6 5 6 5 5 5 9 12 16 14 15 20 26 29 26 27 35 38 31 29 21 14 6 13 9 9 6 16 15 16 15